AAL672 KORD-KBHM

Flight info

Callsign AAL672
Flight time 1h 19m
Altitude 36000
Route CMSKY CARYN CYBIL PXV/N0454F350 RQZ NULLS
Aircraft B738/M-SDE2E3FGHIRWXY/LB1

Departure

Time 2026-04-25 14:49
Airport Chicago O'Hare International Airport (KORD)

Arrival

Time 2026-04-25 16:08
Airport Birmingham-Shuttlesworth International Airport (KBHM)
Time Latitude Longitude Altitude Speed Heading
2026-04-25 14:34 41.97333 -87.90099 661 ft 0 kts 90°
2026-04-25 14:40 41.97333 -87.90102 661 ft 1 kts 90°
2026-04-25 14:41 41.97333 -87.90121 661 ft 2 kts 90°
2026-04-25 14:41 41.97333 -87.90141 662 ft 2 kts 90°
2026-04-25 14:41 41.97333 -87.90158 662 ft 1 kts 118°
2026-04-25 14:41 41.97342 -87.90167 662 ft 1 kts 173°
2026-04-25 14:42 41.97348 -87.90167 662 ft 1 kts 182°
2026-04-25 14:42 41.97351 -87.90167 662 ft 0 kts 181°
2026-04-25 14:43 41.97343 -87.90167 662 ft 3 kts 181°
2026-04-25 14:44 41.97297 -87.90165 662 ft 9 kts 174°
2026-04-25 14:44 41.97220 -87.90150 662 ft 11 kts 169°
2026-04-25 14:44 41.97138 -87.90139 662 ft 13 kts 178°
2026-04-25 14:44 41.97049 -87.90164 662 ft 13 kts 237°
2026-04-25 14:45 41.97039 -87.90288 664 ft 13 kts 270°
2026-04-25 14:45 41.97039 -87.90419 665 ft 14 kts 269°
2026-04-25 14:45 41.97038 -87.90563 667 ft 15 kts 270°
2026-04-25 14:45 41.97038 -87.90708 669 ft 15 kts 270°
2026-04-25 14:46 41.97038 -87.90861 669 ft 17 kts 270°
2026-04-25 14:46 41.97037 -87.91030 669 ft 18 kts 269°
2026-04-25 14:46 41.97037 -87.91211 669 ft 19 kts 270°
2026-04-25 14:46 41.97036 -87.91401 669 ft 21 kts 270°
2026-04-25 14:47 41.97036 -87.91602 669 ft 22 kts 270°
2026-04-25 14:47 41.97036 -87.91741 669 ft 22 kts 270°
2026-04-25 14:47 41.97035 -87.92001 671 ft 14 kts 270°
2026-04-25 14:47 41.96979 -87.92085 672 ft 14 kts 183°
2026-04-25 14:48 41.96903 -87.92061 672 ft 8 kts 105°
2026-04-25 14:48 41.96901 -87.92039 672 ft 0 kts 91°
2026-04-25 14:48 41.96901 -87.91933 672 ft 42 kts 89°
2026-04-25 14:48 41.96902 -87.91195 669 ft 112 kts 89°
2026-04-25 14:49 41.96899 -87.89873 680 ft 167 kts 87°
2026-04-25 14:49 41.96852 -87.88275 1294 ft 176 kts 92°
2026-04-25 14:49 41.96722 -87.86699 2211 ft 173 kts 96°
2026-04-25 14:49 41.96194 -87.85128 2478 ft 204 kts 127°
2026-04-25 14:50 41.94913 -87.84051 2755 ft 236 kts 162°
2026-04-25 14:50 41.93215 -87.83879 3322 ft 252 kts 180°
2026-04-25 14:50 41.91415 -87.84003 3767 ft 273 kts 182°
2026-04-25 14:50 41.89506 -87.84157 4552 ft 278 kts 183°
2026-04-25 14:51 41.87553 -87.84308 5347 ft 283 kts 184°
2026-04-25 14:51 41.85594 -87.84454 6177 ft 285 kts 184°
2026-04-25 14:51 41.83621 -87.84606 6956 ft 289 kts 184°
2026-04-25 14:51 41.81616 -87.84760 7743 ft 292 kts 184°
2026-04-25 14:52 41.79577 -87.84915 8510 ft 295 kts 184°
2026-04-25 14:52 41.77536 -87.85067 9260 ft 299 kts 184°
2026-04-25 14:52 41.75469 -87.85223 10011 ft 301 kts 184°
2026-04-25 14:52 41.74049 -87.85329 10370 ft 309 kts 183°
2026-04-25 14:53 41.71050 -87.85551 10533 ft 342 kts 183°
2026-04-25 14:53 41.68586 -87.85731 10686 ft 364 kts 183°
2026-04-25 14:53 41.66033 -87.85919 11339 ft 369 kts 183°
2026-04-25 14:53 41.63462 -87.86110 11970 ft 374 kts 183°
2026-04-25 14:54 41.60856 -87.86301 12673 ft 377 kts 183°
2026-04-25 14:54 41.58238 -87.86488 13324 ft 381 kts 183°
2026-04-25 14:54 41.55596 -87.86678 13953 ft 384 kts 183°
2026-04-25 14:54 41.52912 -87.86872 14584 ft 388 kts 183°
2026-04-25 14:55 41.50210 -87.87069 15186 ft 392 kts 183°
2026-04-25 14:55 41.47491 -87.87267 15791 ft 395 kts 183°
2026-04-25 14:55 41.44754 -87.87466 16367 ft 399 kts 184°
2026-04-25 14:55 41.41980 -87.87669 16923 ft 403 kts 184°
2026-04-25 14:56 41.39172 -87.87899 17492 ft 406 kts 185°
2026-04-25 14:56 41.36342 -87.88166 18032 ft 409 kts 185°
2026-04-25 14:56 41.33533 -87.88435 18594 ft 412 kts 185°
2026-04-25 14:56 41.30655 -87.88707 19154 ft 414 kts 185°
2026-04-25 14:57 41.27790 -87.88977 19706 ft 416 kts 185°
2026-04-25 14:57 41.24882 -87.89224 20235 ft 419 kts 183°
2026-04-25 14:57 41.22004 -87.89224 20769 ft 421 kts 180°
2026-04-25 14:57 41.19039 -87.89120 21289 ft 423 kts 180°
2026-04-25 14:58 41.16116 -87.89014 21776 ft 425 kts 180°
2026-04-25 14:58 41.13165 -87.88912 22266 ft 427 kts 180°
2026-04-25 14:58 41.10200 -87.88814 22747 ft 429 kts 180°
2026-04-25 14:58 41.07231 -87.88717 23196 ft 432 kts 180°
2026-04-25 14:59 41.04217 -87.88616 23648 ft 434 kts 180°
2026-04-25 14:59 41.01209 -87.88522 24096 ft 435 kts 181°
2026-04-25 14:59 40.98182 -87.88429 24519 ft 438 kts 181°
2026-04-25 14:59 40.95127 -87.88335 24941 ft 439 kts 181°
2026-04-25 15:00 40.92044 -87.88240 25358 ft 441 kts 181°
2026-04-25 15:00 40.88977 -87.88145 25736 ft 444 kts 181°
2026-04-25 15:00 40.85886 -87.88052 26135 ft 445 kts 181°
2026-04-25 15:00 40.82797 -87.87958 26521 ft 447 kts 181°
2026-04-25 15:01 40.79699 -87.87865 26879 ft 449 kts 181°
2026-04-25 15:01 40.76572 -87.87772 27245 ft 451 kts 182°
2026-04-25 15:01 40.73434 -87.87678 27595 ft 452 kts 182°
2026-04-25 15:01 40.70281 -87.87582 27943 ft 454 kts 182°
2026-04-25 15:02 40.67128 -87.87488 28257 ft 456 kts 182°
2026-04-25 15:02 40.63959 -87.87394 28593 ft 458 kts 182°
2026-04-25 15:02 40.60760 -87.87297 28973 ft 458 kts 182°
2026-04-25 15:02 40.57622 -87.87201 29387 ft 457 kts 182°
2026-04-25 15:03 40.54416 -87.87104 29813 ft 456 kts 182°
2026-04-25 15:03 40.51287 -87.87010 30238 ft 454 kts 182°
2026-04-25 15:03 40.48110 -87.86915 30634 ft 453 kts 183°
2026-04-25 15:03 40.45014 -87.86823 31047 ft 451 kts 183°
2026-04-25 15:04 40.41870 -87.86732 31378 ft 452 kts 183°
2026-04-25 15:04 40.38729 -87.86639 31817 ft 449 kts 183°
2026-04-25 15:04 40.35609 -87.86546 32147 ft 449 kts 183°
2026-04-25 15:04 40.32505 -87.86455 32491 ft 448 kts 183°
2026-04-25 15:05 40.29417 -87.86348 32828 ft 447 kts 183°
2026-04-25 15:05 40.26306 -87.86214 33163 ft 447 kts 182°
2026-04-25 15:05 40.23228 -87.86073 33486 ft 446 kts 182°
2026-04-25 15:06 40.17049 -87.85798 34122 ft 444 kts 183°
2026-04-25 15:06 40.13960 -87.85660 34441 ft 443 kts 183°
2026-04-25 15:06 40.10889 -87.85523 34747 ft 442 kts 183°
2026-04-25 15:06 40.07870 -87.85387 34985 ft 439 kts 183°
2026-04-25 15:07 40.04831 -87.85252 35011 ft 441 kts 183°
2026-04-25 15:07 39.98710 -87.84988 35009 ft 440 kts 183°
2026-04-25 15:08 39.92629 -87.84723 35010 ft 438 kts 183°
2026-04-25 15:08 39.86560 -87.84457 35009 ft 437 kts 183°
2026-04-25 15:09 39.80486 -87.84194 35009 ft 438 kts 183°
2026-04-25 15:09 39.71400 -87.83800 35009 ft 438 kts 183°
2026-04-25 15:10 39.65327 -87.83535 35008 ft 437 kts 183°
2026-04-25 15:11 39.56239 -87.83143 35003 ft 436 kts 184°
2026-04-25 15:11 39.50206 -87.82880 35000 ft 435 kts 184°
2026-04-25 15:12 39.41181 -87.82490 35000 ft 433 kts 184°
2026-04-25 15:12 39.36215 -87.82275 35000 ft 433 kts 184°
2026-04-25 15:13 39.26200 -87.81845 34999 ft 432 kts 184°
2026-04-25 15:14 39.20214 -87.81589 34999 ft 430 kts 184°
2026-04-25 15:14 39.14249 -87.81333 35000 ft 429 kts 184°
2026-04-25 15:15 39.08321 -87.81081 35000 ft 428 kts 184°
2026-04-25 15:15 39.02368 -87.80826 34999 ft 428 kts 184°
2026-04-25 15:16 38.96438 -87.80574 34993 ft 428 kts 184°
2026-04-25 15:16 38.87599 -87.80198 34982 ft 426 kts 184°
2026-04-25 15:17 38.78717 -87.79823 34981 ft 425 kts 185°
2026-04-25 15:18 38.72838 -87.79574 34981 ft 424 kts 185°
2026-04-25 15:18 38.64025 -87.79205 34982 ft 424 kts 185°
2026-04-25 15:19 38.59152 -87.79001 34981 ft 424 kts 185°
2026-04-25 15:19 38.52290 -87.78710 34981 ft 423 kts 185°
2026-04-25 15:20 38.46437 -87.78465 34981 ft 423 kts 185°
2026-04-25 15:20 38.40546 -87.78217 34981 ft 423 kts 185°
2026-04-25 15:21 38.34669 -87.78010 34978 ft 428 kts 184°
2026-04-25 15:21 38.28680 -87.77772 34979 ft 440 kts 183°
2026-04-25 15:22 38.22568 -87.77497 34971 ft 441 kts 183°
2026-04-25 15:22 38.16477 -87.77230 34971 ft 437 kts 183°
2026-04-25 15:23 38.10418 -87.76971 34972 ft 437 kts 183°
2026-04-25 15:23 38.04369 -87.76718 34972 ft 438 kts 183°
2026-04-25 15:24 37.98286 -87.76464 34972 ft 438 kts 183°
2026-04-25 15:24 37.93218 -87.75925 34971 ft 443 kts 176°
2026-04-25 15:25 37.86222 -87.73695 34970 ft 448 kts 169°
2026-04-25 15:25 37.80230 -87.71479 34966 ft 449 kts 169°
2026-04-25 15:26 37.74273 -87.69261 34963 ft 450 kts 169°
2026-04-25 15:26 37.68250 -87.67013 34963 ft 450 kts 169°
2026-04-25 15:27 37.62286 -87.64792 34963 ft 449 kts 169°
2026-04-25 15:28 37.53331 -87.61458 34963 ft 449 kts 169°
2026-04-25 15:28 37.47334 -87.59229 34963 ft 450 kts 169°
2026-04-25 15:29 37.41375 -87.57020 34962 ft 450 kts 169°
2026-04-25 15:29 37.35366 -87.54793 34963 ft 450 kts 169°
2026-04-25 15:30 37.29382 -87.52581 34962 ft 450 kts 169°
2026-04-25 15:30 37.23402 -87.50374 34958 ft 450 kts 169°
2026-04-25 15:31 37.17401 -87.48161 34947 ft 450 kts 169°
2026-04-25 15:31 37.11412 -87.45960 34938 ft 451 kts 169°
2026-04-25 15:32 37.05382 -87.43744 34936 ft 451 kts 169°
2026-04-25 15:32 36.99385 -87.41544 34936 ft 451 kts 170°
2026-04-25 15:33 36.90387 -87.38253 34935 ft 451 kts 170°
2026-04-25 15:33 36.84352 -87.36048 34936 ft 452 kts 170°
2026-04-25 15:34 36.78324 -87.33852 34935 ft 451 kts 171°
2026-04-25 15:34 36.73329 -87.32031 34935 ft 451 kts 171°
2026-04-25 15:35 36.63303 -87.28391 34935 ft 452 kts 171°
2026-04-25 15:36 36.54280 -87.25119 34935 ft 452 kts 171°
2026-04-25 15:36 36.48235 -87.22935 34935 ft 452 kts 171°
2026-04-25 15:37 36.42215 -87.20762 34936 ft 452 kts 171°
2026-04-25 15:37 36.36197 -87.18594 34935 ft 452 kts 171°
2026-04-25 15:38 36.30160 -87.16419 34935 ft 452 kts 171°
2026-04-25 15:38 36.24169 -87.14266 34936 ft 452 kts 171°
2026-04-25 15:39 36.18131 -87.12102 34935 ft 452 kts 171°
2026-04-25 15:39 36.12078 -87.09935 34935 ft 452 kts 171°
2026-04-25 15:40 36.07082 -87.08148 34935 ft 452 kts 171°
2026-04-25 15:40 36.00063 -87.05642 34935 ft 451 kts 171°
2026-04-25 15:41 35.94054 -87.03491 34924 ft 452 kts 171°
2026-04-25 15:41 35.88025 -87.01350 34908 ft 452 kts 171°
2026-04-25 15:42 35.81998 -86.99211 34894 ft 451 kts 171°
2026-04-25 15:42 35.76001 -86.97084 34895 ft 450 kts 171°
2026-04-25 15:43 35.69967 -86.94949 34896 ft 451 kts 171°
2026-04-25 15:43 35.63951 -86.92822 34897 ft 450 kts 171°
2026-04-25 15:44 35.57964 -86.90707 34897 ft 449 kts 171°
2026-04-25 15:44 35.51984 -86.88602 34899 ft 450 kts 171°
2026-04-25 15:45 35.45950 -86.86478 34907 ft 450 kts 171°
2026-04-25 15:45 35.40986 -86.84733 34916 ft 450 kts 171°
2026-04-25 15:46 35.34001 -86.82281 34926 ft 448 kts 171°
2026-04-25 15:46 35.27982 -86.80173 34926 ft 449 kts 171°
2026-04-25 15:47 35.22004 -86.78082 34926 ft 449 kts 171°
2026-04-25 15:47 35.16021 -86.75995 34926 ft 449 kts 171°
2026-04-25 15:48 35.13047 -86.74956 34731 ft 445 kts 171°
2026-04-25 15:48 35.10077 -86.73919 34001 ft 446 kts 171°
2026-04-25 15:48 35.07077 -86.72881 33168 ft 448 kts 171°
2026-04-25 15:48 35.04117 -86.71858 32421 ft 449 kts 170°
2026-04-25 15:49 35.01128 -86.70824 31659 ft 450 kts 170°
2026-04-25 15:49 34.98122 -86.69782 30880 ft 451 kts 169°
2026-04-25 15:49 34.95087 -86.68731 30127 ft 454 kts 169°
2026-04-25 15:49 34.92029 -86.67675 29307 ft 467 kts 169°
2026-04-25 15:50 34.88885 -86.66586 28629 ft 465 kts 168°
2026-04-25 15:50 34.85794 -86.65525 28013 ft 459 kts 170°
2026-04-25 15:50 34.82732 -86.64751 27324 ft 452 kts 176°
2026-04-25 15:50 34.79617 -86.64478 26670 ft 441 kts 187°
2026-04-25 15:51 34.76656 -86.64935 25991 ft 432 kts 196°
2026-04-25 15:51 34.74725 -86.65517 25539 ft 427 kts 200°
2026-04-25 15:51 34.70976 -86.66956 24676 ft 421 kts 202°
2026-04-25 15:51 34.68230 -86.68060 24044 ft 417 kts 202°
2026-04-25 15:52 34.65456 -86.69179 23424 ft 413 kts 202°
2026-04-25 15:52 34.62756 -86.70269 22784 ft 410 kts 202°
2026-04-25 15:52 34.60070 -86.71352 22153 ft 406 kts 202°
2026-04-25 15:52 34.57400 -86.72429 21530 ft 403 kts 202°
2026-04-25 15:53 34.54793 -86.73479 20917 ft 399 kts 201°
2026-04-25 15:53 34.52167 -86.74538 20292 ft 396 kts 201°
2026-04-25 15:53 34.49556 -86.75588 19674 ft 392 kts 201°
2026-04-25 15:53 34.47008 -86.76613 19063 ft 389 kts 201°
2026-04-25 15:54 34.44459 -86.77638 18487 ft 385 kts 201°
2026-04-25 15:54 34.41921 -86.78659 17903 ft 381 kts 201°
2026-04-25 15:54 34.39444 -86.79654 17299 ft 378 kts 201°
2026-04-25 15:54 34.36948 -86.80658 16692 ft 375 kts 201°
2026-04-25 15:55 34.34492 -86.81644 16118 ft 372 kts 201°
2026-04-25 15:55 34.32053 -86.82622 15542 ft 368 kts 201°
2026-04-25 15:55 34.29643 -86.83589 14960 ft 366 kts 201°
2026-04-25 15:55 34.27246 -86.84551 14378 ft 363 kts 201°
2026-04-25 15:56 34.24859 -86.85502 13796 ft 360 kts 200°
2026-04-25 15:56 34.22503 -86.86442 13218 ft 358 kts 201°
2026-04-25 15:56 34.20131 -86.87388 12634 ft 355 kts 201°
2026-04-25 15:56 34.17802 -86.88326 12063 ft 353 kts 201°
2026-04-25 15:57 34.15508 -86.89243 11512 ft 350 kts 200°
2026-04-25 15:57 34.13191 -86.90169 10958 ft 347 kts 200°
2026-04-25 15:57 34.10945 -86.91065 10635 ft 337 kts 200°
2026-04-25 15:57 34.08744 -86.91938 10482 ft 323 kts 200°
2026-04-25 15:58 34.06671 -86.92755 10339 ft 304 kts 199°
2026-04-25 15:58 34.04647 -86.93143 10198 ft 288 kts 181°
2026-04-25 15:58 34.02604 -86.92592 10004 ft 285 kts 155°
2026-04-25 15:58 34.00913 -86.91315 9617 ft 288 kts 147°
2026-04-25 15:59 33.99282 -86.89937 9220 ft 289 kts 147°
2026-04-25 15:59 33.97631 -86.88545 8843 ft 289 kts 148°
2026-04-25 15:59 33.95989 -86.87177 8488 ft 289 kts 148°
2026-04-25 15:59 33.94335 -86.85808 8134 ft 288 kts 148°
2026-04-25 16:00 33.92687 -86.84443 7782 ft 287 kts 148°
2026-04-25 16:00 33.91598 -86.83542 7546 ft 286 kts 148°
2026-04-25 16:00 33.89413 -86.81737 7079 ft 285 kts 148°
2026-04-25 16:00 33.87794 -86.80399 6741 ft 279 kts 148°
2026-04-25 16:01 33.86205 -86.79083 6633 ft 259 kts 148°
2026-04-25 16:01 33.84728 -86.77864 6374 ft 250 kts 148°
2026-04-25 16:01 33.83310 -86.76698 6104 ft 248 kts 148°
2026-04-25 16:01 33.81891 -86.75529 5827 ft 247 kts 148°
2026-04-25 16:02 33.80489 -86.74373 5586 ft 243 kts 148°
2026-04-25 16:02 33.79087 -86.73219 5295 ft 240 kts 148°
2026-04-25 16:02 33.77743 -86.72111 5030 ft 232 kts 148°
2026-04-25 16:02 33.76450 -86.71045 4798 ft 221 kts 148°
2026-04-25 16:03 33.75206 -86.70023 4567 ft 211 kts 148°
2026-04-25 16:03 33.74006 -86.69035 4351 ft 209 kts 148°
2026-04-25 16:03 33.72802 -86.68047 4118 ft 207 kts 148°
2026-04-25 16:03 33.71624 -86.67078 3898 ft 206 kts 148°
2026-04-25 16:04 33.70447 -86.66114 3677 ft 205 kts 148°
2026-04-25 16:04 33.69266 -86.65143 3486 ft 199 kts 148°
2026-04-25 16:04 33.68177 -86.64246 3334 ft 186 kts 148°
2026-04-25 16:04 33.67133 -86.63388 3297 ft 179 kts 148°
2026-04-25 16:05 33.66084 -86.62557 3286 ft 182 kts 156°
2026-04-25 16:05 33.64884 -86.62225 3183 ft 175 kts 189°
2026-04-25 16:05 33.63037 -86.63982 2745 ft 172 kts 235°
2026-04-25 16:06 33.62349 -86.65182 2486 ft 178 kts 235°
2026-04-25 16:06 33.61658 -86.66387 2221 ft 174 kts 235°
2026-04-25 16:06 33.60983 -86.67564 1996 ft 168 kts 235°
2026-04-25 16:06 33.60343 -86.68681 1803 ft 157 kts 235°
2026-04-25 16:07 33.59725 -86.69760 1609 ft 158 kts 235°
2026-04-25 16:07 33.59304 -86.70495 1440 ft 160 kts 235°
2026-04-25 16:07 33.58472 -86.71931 1164 ft 159 kts 235°
2026-04-25 16:07 33.57860 -86.73019 969 ft 157 kts 234°
2026-04-25 16:08 33.57235 -86.74103 685 ft 157 kts 236°
2026-04-25 16:08 33.56665 -86.75101 629 ft 121 kts 234°
2026-04-25 16:08 33.56315 -86.75706 621 ft 54 kts 235°
2026-04-25 16:08 33.56192 -86.75855 622 ft 14 kts 192°
2026-04-25 16:09 33.56142 -86.75819 618 ft 10 kts 69°
2026-04-25 16:09 33.56189 -86.75734 618 ft 13 kts 56°
2026-04-25 16:09 33.56243 -86.75636 617 ft 15 kts 55°
2026-04-25 16:09 33.56294 -86.75536 618 ft 12 kts 70°
2026-04-25 16:10 33.56300 -86.75459 619 ft 8 kts 88°
2026-04-25 16:10 33.56274 -86.75411 618 ft 5 kts 130°
2026-04-25 16:10 33.56249 -86.75364 618 ft 4 kts 120°
2026-04-25 16:10 33.56241 -86.75346 618 ft 0 kts 119°